Tracking 17142 objects as of 29-May-2015
HD Live streaming from Space Station

AZUR (GRS A)

Track AZUR (GRS A) now!
10-day predictions
AZUR (GRS A) is classified as:


NORAD ID: 4221
Int'l Code: 1969-097A
Perigee: 365.3 km
Apogee: 1,346.5 km
Inclination: 102.7 °
Period: 101.9 minutes
Semi major axis: 7226 km
RCS: 0.3339 m2 (medium)
Launch date: November 8, 1969
Source: Germany (GER)
Your satellite tracking list
Your tracking list is empty





NASA's NSSDC Master Catalog

Two Line Element Set (TLE):
1 04221U 69097A   15148.58970941  .00005101  00000-0  25757-3 0  9998
2 04221 102.6892 033.9072 0678807 194.6837 163.3699 14.13105312142743

Source of the keplerian elements: AFSPC

N2YO: 378